Simultaneous Nadir Overpasses (SNOs) Predictions

Prediction of SNOs between METOP-B and TERRA Satellite Orbit:

Table of predicted SNOs for the next 14.0 days since TLE Epoch: 4/18/2015
Index Date (METOP-B) Time (METOP-B) Lat,Lon (METOP-B) SZA (METOP-B ) Date (TERRA) Time (TERRA) Lat,Lon (TERRA) SZA (TERRA ) Distance(km) Time Diff (sec)
1 04/20/2015 00:54:44 -81.30, 33.60 107.17 04/20/2015 00:54:53 -81.30, 33.68 107.16 1.28 9
2 04/20/2015 01:45:23 81.31,-158.53 72.89 04/20/2015 01:44:19 81.31,-158.60 72.85 1.11 64
3 04/22/2015 19:38:24 81.30, -67.35 71.91 04/22/2015 19:39:36 81.30, -67.42 71.94 1.36 72
4 04/22/2015 20:29:05 -81.30, 100.09 108.09 04/22/2015 20:29:03 -81.30, 100.15 108.09 1.07 2
5 04/25/2015 15:12:47 81.29, -1.37 70.95 04/25/2015 15:13:47 81.29, -1.23 70.99 2.32 60
6 04/25/2015 16:03:26 -81.31, 166.88 108.96 04/25/2015 16:03:13 -81.31, 166.75 108.98 2.18 13
7 04/28/2015 10:47:08 81.30, 65.32 70.10 04/28/2015 10:47:56 81.30, 65.47 70.14 2.64 48
8 04/28/2015 11:37:48 -81.30,-126.81 109.85 04/28/2015 11:37:23 -81.30,-126.91 109.88 1.64 25
9 05/01/2015 06:21:28 81.30, 131.91 69.27 05/01/2015 06:22:04 81.30, 131.91 69.29 0.26 36




NCC Satellite Simultaneous Nadir Overpasses (SNOs) Prediction Service
